Simultaneous Nadir Overpasses (SNOs) Predictions

Prediction of SNOs between METOP-B and TERRA Satellite Orbit:

Table of predicted SNOs for the next 14.0 days since TLE Epoch: 7/23/2022
Index Date (METOP-B) Time (METOP-B) Lat,Lon (METOP-B) SZA (METOP-B ) Date (TERRA) Time (TERRA) Lat,Lon (TERRA) SZA (TERRA ) Distance(km) Time Diff (sec)
1 07/23/2022 12:44:04 81.14, 28.91 63.12 07/23/2022 12:45:12 81.14, 28.91 63.14 0.06 68
2 07/23/2022 13:34:44 -81.16,-163.35 116.83 07/23/2022 13:34:38 -81.16,-163.22 116.82 2.30 6
3 07/26/2022 08:18:26 81.14, 95.12 63.69 07/26/2022 08:19:19 81.14, 95.26 63.72 2.46 53
4 07/26/2022 09:09:04 -81.17, -96.37 116.16 07/26/2022 09:08:44 -81.18, -96.48 116.18 1.76 20
5 07/29/2022 03:52:45 81.15, 162.05 64.40 07/29/2022 03:53:24 81.15, 161.87 64.39 3.07 39
6 07/29/2022 04:43:25 -81.17, -30.19 115.55 07/29/2022 04:42:50 -81.17, -30.20 115.56 0.18 35
7 07/31/2022 23:27:06 81.16,-131.44 65.09 07/31/2022 23:27:30 81.15,-131.62 65.08 3.14 24
8 08/01/2022 00:17:46 -81.17, 36.33 114.85 08/01/2022 00:16:56 -81.17, 36.34 114.87 0.15 50
9 08/03/2022 19:01:28 81.15, -65.34 65.78 08/03/2022 19:01:36 81.15, -65.21 65.80 2.21 8



Historial Predications of SNOs between METOP-B and TERRA
